ETD249 CYVR-OMAA

Flight info

Callsign ETD249
Flight time N/A
Altitude 34000
Route KEINN DCT 55N125W DCT DACEY DCT 65N27 DCT 70N28 DCT 76N131W 81N136W 86N154W/K0909F340 87N101E 82N072E DCT MARUL/K0930F350 L165 SH/K0913F360 N167 BEBIR G497 UNISO L992 GIMAK/K0909F370 M168 NELTI/K0902F360 L165 EKSOZ/K0895F370 L165 INKUM/K0895F380 N167 ADOBI/N0487F380 B359 ASB B114 RIKOP M324 DAR B418 PURBO/N0491F390 B418 KER/N0494F380 M324 PATAT/N0510F340 L519 IVOXI Q311 EMERU
Aircraft A35K/H-SDE2E3GHIJ3J4J5LM1ORWXY/LB1D1

Departure

Time 2026-05-03 22:50
Airport Vancouver International Airport (CYVR)

Arrival

Time N/A
Airport Zayed International Airport (OMAA)
Time Latitude Longitude Altitude Speed Heading
2026-05-03 22:27 49.19087 -123.18271 28 ft 0 kts 190°
2026-05-03 22:38 49.19102 -123.18269 27 ft 3 kts 164°
2026-05-03 22:38 49.19120 -123.18281 29 ft 3 kts 130°
2026-05-03 22:39 49.19128 -123.18301 27 ft 0 kts 104°
2026-05-03 22:41 49.19128 -123.18300 27 ft 1 kts 104°
2026-05-03 22:41 49.19122 -123.18250 28 ft 5 kts 94°
2026-05-03 22:41 49.19115 -123.18156 24 ft 12 kts 100°
2026-05-03 22:42 49.19078 -123.18056 28 ft 10 kts 154°
2026-05-03 22:42 49.19011 -123.18050 27 ft 10 kts 188°
2026-05-03 22:42 49.18942 -123.18047 26 ft 10 kts 156°
2026-05-03 22:42 49.18904 -123.17963 26 ft 12 kts 110°
2026-05-03 22:43 49.18880 -123.17814 27 ft 16 kts 102°
2026-05-03 22:43 49.18861 -123.17620 28 ft 21 kts 98°
2026-05-03 22:43 49.18835 -123.17383 27 ft 24 kts 99°
2026-05-03 22:43 49.18806 -123.17126 29 ft 24 kts 99°
2026-05-03 22:44 49.18776 -123.16869 29 ft 24 kts 100°
2026-05-03 22:44 49.18748 -123.16614 29 ft 24 kts 100°
2026-05-03 22:44 49.18730 -123.16459 28 ft 19 kts 100°
2026-05-03 22:44 49.18690 -123.16283 28 ft 13 kts 125°
2026-05-03 22:45 49.18652 -123.16202 30 ft 0 kts 122°
2026-05-03 22:45 49.18651 -123.16199 30 ft 1 kts 122°
2026-05-03 22:45 49.18644 -123.16177 30 ft 7 kts 112°
2026-05-03 22:46 49.18627 -123.16093 29 ft 8 kts 111°
2026-05-03 22:46 49.18601 -123.16053 30 ft 0 kts 153°
2026-05-03 22:47 49.18588 -123.16045 30 ft 3 kts 161°
2026-05-03 22:48 49.18585 -123.16044 30 ft 4 kts 163°
2026-05-03 22:48 49.18517 -123.16048 27 ft 10 kts 199°
2026-05-03 22:48 49.18477 -123.16128 29 ft 8 kts 255°
2026-05-03 22:48 49.18480 -123.16159 28 ft 0 kts 282°
2026-05-03 22:49 49.18481 -123.16171 28 ft 11 kts 282°
2026-05-03 22:49 49.18542 -123.16678 23 ft 86 kts 280°
2026-05-03 22:49 49.18684 -123.17919 25 ft 150 kts 279°
2026-05-03 22:50 49.18880 -123.19720 253 ft 187 kts 279°
2026-05-03 22:50 49.19073 -123.21790 858 ft 201 kts 278°
2026-05-03 22:50 49.19076 -123.23975 1569 ft 218 kts 262°
2026-05-03 22:50 49.18797 -123.26413 1983 ft 246 kts 261°
2026-05-03 22:51 49.18489 -123.29036 2772 ft 252 kts 261°
2026-05-03 22:51 49.18213 -123.31666 3240 ft 258 kts 263°
2026-05-03 22:51 49.18245 -123.34426 3628 ft 264 kts 281°
2026-05-03 22:51 49.18945 -123.37012 4068 ft 267 kts 307°
2026-05-03 22:52 49.20327 -123.38891 4557 ft 268 kts 328°
2026-05-03 22:52 49.21991 -123.40212 5043 ft 271 kts 337°
2026-05-03 22:52 49.23762 -123.41221 5551 ft 273 kts 342°
2026-05-03 22:52 49.25574 -123.42109 6083 ft 274 kts 342°
2026-05-03 22:53 49.27388 -123.43052 6626 ft 275 kts 341°
2026-05-03 22:53 49.29204 -123.44056 7180 ft 277 kts 341°
2026-05-03 22:53 49.30998 -123.45069 7724 ft 279 kts 341°
2026-05-03 22:53 49.32834 -123.46105 8269 ft 282 kts 341°
2026-05-03 22:54 49.34680 -123.47141 8845 ft 284 kts 341°
2026-05-03 22:54 49.36544 -123.48177 9391 ft 286 kts 341°
2026-05-03 22:54 49.38423 -123.49218 9947 ft 288 kts 342°
2026-05-03 22:54 49.40325 -123.50269 10340 ft 296 kts 342°
2026-05-03 22:55 49.42314 -123.51360 10556 ft 310 kts 342°
2026-05-03 22:55 49.44393 -123.52501 10750 ft 324 kts 342°
2026-05-03 22:55 49.46558 -123.53689 10987 ft 337 kts 341°
2026-05-03 22:55 49.48807 -123.54928 11211 ft 350 kts 341°
2026-05-03 22:56 49.51137 -123.56216 11404 ft 362 kts 341°
2026-05-03 22:56 49.53515 -123.57529 11592 ft 373 kts 342°
2026-05-03 22:56 49.56058 -123.58566 11879 ft 380 kts 349°
2026-05-03 22:56 49.58668 -123.59349 12298 ft 384 kts 350°
2026-05-03 22:57 49.61320 -123.60053 12558 ft 391 kts 351°
2026-05-03 22:57 49.64018 -123.60701 13063 ft 392 kts 352°
2026-05-03 22:57 49.66720 -123.61311 13568 ft 393 kts 352°
2026-05-03 22:57 49.69432 -123.61912 14013 ft 394 kts 352°
2026-05-03 22:58 49.72159 -123.62512 14434 ft 396 kts 352°
2026-05-03 22:58 49.74896 -123.63123 14826 ft 398 kts 352°
2026-05-03 22:58 49.77640 -123.63739 15285 ft 399 kts 352°
2026-05-03 22:58 49.80398 -123.64362 15650 ft 402 kts 352°
2026-05-03 22:59 49.83177 -123.64999 16063 ft 404 kts 352°
2026-05-03 22:59 49.85963 -123.65647 16488 ft 406 kts 352°
2026-05-03 22:59 49.88773 -123.66320 16893 ft 407 kts 351°
2026-05-03 22:59 49.91546 -123.66983 17314 ft 409 kts 351°
2026-05-03 23:00 49.94368 -123.67643 17760 ft 410 kts 351°
2026-05-03 23:00 49.97196 -123.68301 18231 ft 411 kts 351°
2026-05-03 23:00 50.00030 -123.68967 18596 ft 413 kts 351°
2026-05-03 23:00 50.02882 -123.69640 18983 ft 415 kts 351°
2026-05-03 23:01 50.05751 -123.70314 19319 ft 418 kts 351°
2026-05-03 23:01 50.08636 -123.70992 19683 ft 420 kts 351°
2026-05-03 23:01 50.11503 -123.71664 20052 ft 422 kts 351°
2026-05-03 23:01 50.14446 -123.72351 20419 ft 423 kts 351°
2026-05-03 23:02 50.17331 -123.73009 20775 ft 424 kts 351°
2026-05-03 23:02 50.20265 -123.73684 21106 ft 427 kts 351°
2026-05-03 23:02 50.23209 -123.74382 21501 ft 429 kts 351°
2026-05-03 23:02 50.26164 -123.75090 21873 ft 431 kts 351°
2026-05-03 23:03 50.29143 -123.75806 22291 ft 434 kts 351°
2026-05-03 23:03 50.32145 -123.76527 22741 ft 435 kts 351°
2026-05-03 23:03 50.35153 -123.77254 23149 ft 438 kts 351°
2026-05-03 23:03 50.38141 -123.77959 23500 ft 440 kts 351°
2026-05-03 23:04 50.41184 -123.78662 23806 ft 443 kts 351°
2026-05-03 23:04 50.44241 -123.79384 24167 ft 443 kts 351°
2026-05-03 23:04 50.47292 -123.80115 24613 ft 443 kts 351°
2026-05-03 23:04 50.50348 -123.80853 24943 ft 445 kts 351°
2026-05-03 23:05 50.53425 -123.81594 25305 ft 447 kts 351°
2026-05-03 23:05 50.56504 -123.82334 25639 ft 449 kts 352°
2026-05-03 23:05 50.59560 -123.83066 25974 ft 451 kts 352°
2026-05-03 23:05 50.62710 -123.83825 26263 ft 453 kts 351°
2026-05-03 23:06 50.65785 -123.84571 26610 ft 454 kts 352°
2026-05-03 23:06 50.68920 -123.85323 26822 ft 456 kts 352°
2026-05-03 23:06 50.72061 -123.86080 27188 ft 457 kts 351°
2026-05-03 23:06 50.75206 -123.86840 27513 ft 458 kts 352°
2026-05-03 23:07 50.78361 -123.87598 27805 ft 460 kts 352°
2026-05-03 23:07 50.81537 -123.88363 28062 ft 462 kts 352°
2026-05-03 23:07 50.84719 -123.89131 28280 ft 463 kts 352°
2026-05-03 23:07 50.87913 -123.89903 28591 ft 464 kts 352°
2026-05-03 23:08 50.91115 -123.90681 28901 ft 465 kts 351°
2026-05-03 23:08 50.94265 -123.91448 29300 ft 463 kts 352°
2026-05-03 23:08 50.97444 -123.92223 29705 ft 462 kts 351°
2026-05-03 23:08 51.00617 -123.92998 30068 ft 460 kts 352°
2026-05-03 23:09 51.03781 -123.93771 30391 ft 459 kts 351°